Location: Recife
(8.0585°S, 34.8848°W)
Time: 21:15:24
(UTC-03:00)

A-11 Canister half - Pass Details

Date: 14 April 2026
Orbit: 1523 x 1685 km, 47.3° (Epoch: 12 May)

Event Time Altitude Azimuth Distance (km) Brightness Sun altitude
Rises 19:21:34 0° 204° (SSW) 4,723 11.8 -31.2°
Reaches altitude 10° 19:25:11 10° 193° (SSW) 3,758 11.1 -32.1°
Enters shadow 19:29:33 24° 169° (S) 2,855 10.2 -33.2°
Maximum altitude 19:33:13 30° 135° (SE) 2,573 - -34.1°
Drops below altitude 10° 19:41:24 10° 78° (ENE) 3,857 - -36.1°
Sets 19:45:07 0° 67° (ENE) 4,864 - -37.0°
